When you browse on this site, cookies collect data to enhance your experience and personalize the content and advertising you see.
Visit our Privacy Policy to learn more. By continuing to use the site, you agree to this use of cookies and data.
  • In Latvia
  • List of Countries
  • For 7 days
  • Water Temperature
  • Satellite Maps
  • Weather Map
  • Weather Widgets
  • user-avatar
    Login

    Hourly Weather Firladeni

    Today, 25 March, Monday

    Time Temperature Precipitation Wind Pressure Humidity
    00:00 +10°C° 0 mm 2 mps 750 mmHg 75%
    01:00 +10°C° 0 mm 1 mps 750 mmHg 75%
    02:00 +9°C° 0 mm 1 mps 750 mmHg 74%
    03:00 +9°C° 0 mm 1 mps 749 mmHg 74%
    04:00 +8°C° 0 mm 0 mps 749 mmHg 74%
    05:00 +7°C° 0 mm 0 mps 748 mmHg 74%
    06:00 +9°C° 0 mm 1 mps 748 mmHg 71%
    07:00 +9°C° 0 mm 2 mps 747 mmHg 68%
    08:00 +10°C° 0 mm 3 mps 747 mmHg 65%
    09:00 +12°C° 0 mm 4 mps 746 mmHg 60%
    10:00 +14°C° 0 mm 5 mps 746 mmHg 55%
    11:00 +16°C° 0 mm 7 mps 745 mmHg 50%
    12:00 +17°C° 0.1 mm 7 mps 745 mmHg 46%
    13:00 +19°C° 0.1 mm 6 mps 744 mmHg 42%
    14:00 +20°C° 0.1 mm 6 mps 743 mmHg 38%
    15:00 +19°C° 0 mm 5 mps 743 mmHg 41%
    16:00 +19°C° 0 mm 4 mps 743 mmHg 45%
    17:00 +18°C° 0 mm 3 mps 743 mmHg 48%
    18:00 +16°C° 0 mm 3 mps 743 mmHg 58%
    19:00 +13°C° 0 mm 3 mps 743 mmHg 68%
    20:00 +12°C° 0 mm 3 mps 744 mmHg 78%
    21:00 +11°C° 0 mm 3 mps 744 mmHg 80%
    22:00 +10°C° 0 mm 3 mps 744 mmHg 82%
    23:00 +9°C° 0 mm 3 mps 744 mmHg 83%

    Tomorrow, 26 March, Tuesday

    Time Temperature Precipitation Wind Pressure Humidity
    00:00 +9°C° 0 mm 3 mps 745 mmHg 81%
    01:00 +8°C° 0 mm 4 mps 745 mmHg 79%
    02:00 +7°C° 0 mm 4 mps 746 mmHg 77%
    03:00 +8°C° 0 mm 3 mps 746 mmHg 77%
    04:00 +7°C° 0 mm 3 mps 746 mmHg 76%
    05:00 +7°C° 0 mm 3 mps 746 mmHg 76%
    06:00 +7°C° 0 mm 3 mps 747 mmHg 73%
    07:00 +7°C° 0 mm 3 mps 747 mmHg 70%
    08:00 +7°C° 0 mm 4 mps 748 mmHg 67%
    09:00 +8°C° 0 mm 4 mps 748 mmHg 63%
    10:00 +9°C° 0 mm 5 mps 749 mmHg 59%
    11:00 +10°C° 0 mm 5 mps 749 mmHg 55%
    12:00 +10°C° 0 mm 5 mps 749 mmHg 51%
    13:00 +10°C° 0 mm 5 mps 749 mmHg 47%
    14:00 +12°C° 0 mm 5 mps 749 mmHg 43%
    15:00 +10°C° 0 mm 5 mps 749 mmHg 43%
    16:00 +10°C° 0 mm 5 mps 749 mmHg 43%
    17:00 +10°C° 0 mm 5 mps 749 mmHg 42%
    18:00 +10°C° 0 mm 4 mps 749 mmHg 46%
    19:00 +9°C° 0 mm 3 mps 750 mmHg 49%
    20:00 +8°C° 0 mm 2 mps 750 mmHg 53%
    21:00 +7°C° 0 mm 2 mps 750 mmHg 54%
    22:00 +7°C° 0 mm 2 mps 751 mmHg 55%
    23:00 +6°C° 0 mm 2 mps 751 mmHg 55%

    Day after tomorrow, 27 March, Wednesday

    Time Temperature Precipitation Wind Pressure Humidity
    00:00 +6°C° 0 mm 2 mps 751 mmHg 56%
    01:00 +6°C° 0 mm 2 mps 751 mmHg 57%
    02:00 +5°C° 0 mm 2 mps 751 mmHg 58%
    03:00 +4°C° 0.1 mm 3 mps 751 mmHg 59%
    04:00 +4°C° 0.1 mm 4 mps 751 mmHg 60%
    05:00 +3°C° 0.1 mm 5 mps 751 mmHg 61%
    06:00 +3°C° 0 mm 6 mps 752 mmHg 54%
    07:00 +1°C° 0 mm 8 mps 753 mmHg 47%
    08:00 +1°C° 0 mm 10 mps 753 mmHg 40%
    09:00 +1°C° 0 mm 9 mps 754 mmHg 42%
    10:00 +2°C° 0 mm 9 mps 754 mmHg 44%
    11:00 +3°C° 0 mm 9 mps 755 mmHg 46%
    12:00 +5°C° 0 mm 9 mps 755 mmHg 44%
    13:00 +6°C° 0 mm 9 mps 755 mmHg 42%
    14:00 +6°C° 0 mm 8 mps 756 mmHg 39%
    15:00 +6°C° 0 mm 8 mps 756 mmHg 38%
    16:00 +6°C° 0 mm 8 mps 756 mmHg 37%
    17:00 +5°C° 0 mm 8 mps 756 mmHg 35%
    18:00 +4°C° 0 mm 6 mps 757 mmHg 39%
    19:00 +3°C° 0 mm 5 mps 757 mmHg 43%
    20:00 +3°C° 0 mm 4 mps 758 mmHg 47%
    21:00 +3°C° 0 mm 4 mps 758 mmHg 49%
    22:00 +2°C° 0 mm 3 mps 759 mmHg 51%
    23:00 +2°C° 0 mm 3 mps 759 mmHg 52%

    28 March, Thursday

    Time Temperature Precipitation Wind Pressure Humidity
    00:00 +1°C° 0 mm 3 mps 759 mmHg 55%
    01:00 +1°C° 0 mm 3 mps 759 mmHg 57%
    02:00 0°C° 0 mm 3 mps 760 mmHg 59%
    03:00 0°C° 0 mm 3 mps 760 mmHg 61%
    04:00 0°C° 0 mm 3 mps 760 mmHg 64%
    05:00 -1°C° 0 mm 3 mps 760 mmHg 66%
    06:00 0°C° 0 mm 3 mps 760 mmHg 63%
    07:00 0°C° 0 mm 4 mps 761 mmHg 59%
    08:00 +1°C° 0 mm 5 mps 761 mmHg 56%
    09:00 +2°C° 0 mm 5 mps 761 mmHg 50%
    10:00 +3°C° 0 mm 5 mps 761 mmHg 44%
    11:00 +5°C° 0 mm 5 mps 762 mmHg 39%
    12:00 +5°C° 0 mm 5 mps 762 mmHg 37%
    13:00 +6°C° 0 mm 5 mps 761 mmHg 36%
    14:00 +6°C° 0 mm 5 mps 761 mmHg 35%
    15:00 +6°C° 0 mm 5 mps 761 mmHg 36%
    16:00 +6°C° 0 mm 5 mps 761 mmHg 36%
    17:00 +6°C° 0 mm 5 mps 761 mmHg 37%
    18:00 +5°C° 0 mm 4 mps 761 mmHg 40%
    19:00 +4°C° 0 mm 3 mps 762 mmHg 44%
    20:00 +3°C° 0 mm 3 mps 762 mmHg 48%
    21:00 +3°C° 0 mm 2 mps 763 mmHg 50%
    22:00 +3°C° 0 mm 2 mps 763 mmHg 51%
    23:00 +3°C° 0 mm 2 mps 763 mmHg 52%

    29 March, Friday

    Time Temperature Precipitation Wind Pressure Humidity
    00:00 +2°C° 0 mm 2 mps 763 mmHg 53%
    01:00 +3°C° 0 mm 1 mps 763 mmHg 54%
    02:00 +3°C° 0 mm 1 mps 763 mmHg 55%
    03:00 +2°C° 0 mm 1 mps 763 mmHg 56%
    04:00 +2°C° 0 mm 1 mps 763 mmHg 58%
    05:00 +1°C° 0 mm 1 mps 763 mmHg 59%
    06:00 +2°C° 0 mm 2 mps 763 mmHg 55%
    07:00 +3°C° 0 mm 2 mps 763 mmHg 51%
    08:00 +4°C° 0 mm 2 mps 763 mmHg 47%
    09:00 +4°C° 0 mm 3 mps 762 mmHg 42%
    10:00 +5°C° 0 mm 3 mps 762 mmHg 36%
    11:00 +8°C° 0 mm 3 mps 762 mmHg 31%
    12:00 +8°C° 0 mm 4 mps 761 mmHg 31%
    13:00 +8°C° 0 mm 4 mps 761 mmHg 30%
    14:00 +10°C° 0 mm 4 mps 760 mmHg 30%
    15:00 +10°C° 0 mm 4 mps 759 mmHg 33%
    16:00 +9°C° 0 mm 5 mps 759 mmHg 36%
    17:00 +9°C° 0 mm 5 mps 758 mmHg 39%
    18:00 +8°C° 0 mm 4 mps 758 mmHg 45%
    19:00 +8°C° 0 mm 3 mps 758 mmHg 51%
    20:00 +7°C° 0 mm 3 mps 758 mmHg 57%
    21:00 +7°C° 0 mm 3 mps 758 mmHg 60%
    22:00 +7°C° 0 mm 3 mps 758 mmHg 63%
    23:00 +5°C° 0 mm 4 mps 757 mmHg 66%

    30 March, Saturday

    Time Temperature Precipitation Wind Pressure Humidity
    00:00 +5°C° 0 mm 4 mps 757 mmHg 69%
    01:00 +5°C° 0 mm 5 mps 757 mmHg 73%
    02:00 +5°C° 0 mm 5 mps 756 mmHg 76%
    03:00 +5°C° 0 mm 5 mps 756 mmHg 78%
    04:00 +5°C° 0 mm 5 mps 756 mmHg 80%
    05:00 +3°C° 0 mm 6 mps 756 mmHg 82%
    06:00 +4°C° 0 mm 6 mps 756 mmHg 79%
    07:00 +5°C° 0 mm 6 mps 756 mmHg 76%
    08:00 +5°C° 0 mm 6 mps 757 mmHg 74%
    09:00 +8°C° 0 mm 6 mps 756 mmHg 68%
    10:00 +9°C° 0 mm 6 mps 756 mmHg 62%
    11:00 +11°C° 0 mm 6 mps 756 mmHg 56%
    12:00 +13°C° 0 mm 6 mps 756 mmHg 53%
    13:00 +14°C° 0 mm 6 mps 755 mmHg 50%
    14:00 +14°C° 0 mm 6 mps 755 mmHg 47%
    15:00 +14°C° 0 mm 6 mps 755 mmHg 47%
    16:00 +14°C° 0 mm 6 mps 754 mmHg 47%
    17:00 +14°C° 0 mm 5 mps 754 mmHg 47%
    18:00 +13°C° 0 mm 4 mps 754 mmHg 52%
    19:00 +12°C° 0 mm 3 mps 754 mmHg 57%
    20:00 +12°C° 0 mm 2 mps 754 mmHg 62%
    21:00 +10°C° 0 mm 2 mps 754 mmHg 62%
    22:00 +9°C° 0 mm 2 mps 754 mmHg 62%
    23:00 +10°C° 0 mm 1 mps 754 mmHg 62%
    Show more